Location: Celina Division
(33.3022°N, 96.7580°W)
Time: 13:11:17
(UTC+00:00)

CZ-4B R/B - Pass Details

Date: 08 December 2021
Orbit: 482 x 652 km, 97.9° (Epoch: 28 January)

Event Time Altitude Azimuth Distance (km) Brightness Sun altitude
Rises 12:06:22 0° 16° (NNE) 2,554 6.2 -14.8°
Reaches altitude 10° 12:08:26 10° 20° (NNE) 1,678 5.3 -14.4°
Maximum altitude 12:11:59 60° 101° (E) 571 3.2 -13.7°
Drops below altitude 10° 12:15:38 10° 182° (S) 1,720 5.6 -12.9°
Sets 12:17:46 0° 186° (S) 2,626 6.5 -12.5°
